331P/Gibbs (2010)

Japanese version
Home page
Updated on February 27, 2016

---------------------------------------------------------------------

* Profile

Discovery Date March 22, 2012
Magnitude 18.1 mag
Discoverer A. R. Gibbs (Mount Lemmon)

* Pictures

* Orbital Elements

Epoch 2010 Mar. 25.0 TT = JDT 2455280.5
T 2010 Mar. 24.30556 TT                                 MPC
q   2.8753409            (2000.0)            P               Q
n   0.18940394     Peri.  176.58749     +0.83384347     -0.54259277
a   3.0029173      Node   216.86345     +0.50236150     +0.82211694
e   0.0424841      Incl.    9.73890     +0.22877500     +0.17238569
P   5.20
From 105 observations 2009 Sept. 17-2013 May 12, mean residual 0".6.

* Magnitudes Graph

        m1 =   15.0 + 5 log d +  10.0 log r           [   ,545]  (             - 2011 Sept.19)
        m1 = -327   + 5 log d + 750   log r(t - 730)  [545,920]  (2011 Sept.19 - 2012 Sept.28)
        m1 =   15.0 + 5 log d +  10.0 log r           [920,   ]  (2012 Sept.28-              )

---------------------------------------------------------------------

The orbital elements are published on M.P.E.C. 2014-B85.
The magnitudes graphs are made with Comet for Windows.

---------------------------------------------------------------------

Copyright(C) Seiichi Yoshida (comet@aerith.net). All rights reserved.